Location: Poughquag
(41.6090°N, 73.6820°W)
Time: 10:05:19
(UTC-05:00)

Vanguard 1 - Pass Details

Date: 07 December 2023
Orbit: 653 x 3826 km, 34.3° (Epoch: 25 February)

Event Time Altitude Azimuth Distance (km) Brightness Sun altitude
Rises 16:51:27 0° 232° (SW) 5,044 15.8 -5.3°
Reaches altitude 10° 16:54:17 10° 227° (SW) 4,386 14.9 -5.8°
Maximum altitude 17:06:56 55° 154° (SSE) 3,286 12.7 -7.9°
Enters shadow 17:27:41 10° 85° (E) 6,851 13.7 -11.5°
Drops below altitude 10° 17:27:41 10° 85° (E) 6,852 13.7 -11.5°
Sets 17:33:28 0° 82° (E) 7,968 - -12.5°
